Weather History for Abbeville, LA

Change the Weather History Date:

Tuesday, April 9, 2013

  Actual Average (KARA) Record (KARA)
Temperature  
Mean Temperature 75 °F 66 °F  
Max Temperature 81 °F 78 °F 90 °F (1948)
Min Temperature 69 °F 55 °F 40 °F (2003)
Degree Days  
Heating Degree Days 0 2  
Month to date heating degree days 24  
Since 1 July heating degree days 1388  
Cooling Degree Days 10 4  
Month to date cooling degree days 29  
Year to date cooling degree days 112  
Growing Degree Days 25 (Base 50)    
Moisture  
Dew Point 74 °F    
Average Humidity 95    
Maximum Humidity 100    
Minimum Humidity 81    
Precipitation  
Precipitation 0.00 in 0.15 in 2.72 in (1952)
Month to date precipitation 1.35  
Year to date precipitation 14.53  
Sea Level Pressure  
Sea Level Pressure 29.91 in    
Wind  
Wind Speed 11 mph (SE)    
Max Wind Speed 23 mph    
Max Gust Speed 33 mph    
Visibility 10 miles    
Events      
T = Trace of Precipitation, MM = Missing Value Source: NWS Daily Summary

Daily Weather History Graph

Daily Weather History Graph

Search for Another Location

Airport:

Trip Planner

Search our weather history database for the weather conditions in past years. The results will help you decide how hot, cold, wet, or windy it might be!

Date:

Astronomy

Apr. 09, 2013 Rise Set
Actual Time 6:47 AM CDT 7:32 PM CDT
Civil Twilight 6:23 AM CDT 7:56 PM CDT
Nautical Twilight 5:55 AM CDT 8:25 PM CDT
Astronomical Twilight 5:25 AM CDT 8:54 PM CDT
Moon 6:08 AM CDT (4/9) 7:07 PM CDT (4/9)
Length of Visible Light 13h 32m
Length of Day
12h 44m
Waning Crescent, 1% of the Moon is Illuminated
Apr 9
Waning Crescent
Apr 10
New
Apr 18
First Quarter
Apr 25
Full
May 2
Last Quarter

Hourly Weather History & Observations

Time (CDT) Temp. Heat Index Dew Point Humidity Pressure Visibility Wind Dir Wind Speed Gust Speed Precip Events Conditions
12:15 AM 69.4 °F - 69.3 °F 99% 29.92 in 10.0 mi ESE 4.6 mph - N/A   Overcast
12:35 AM 69.8 °F - 69.6 °F 99% 29.91 in 10.0 mi ESE 4.6 mph - N/A   Overcast
12:55 AM 70.2 °F - 69.8 °F 99% 29.91 in 10.0 mi ESE 5.8 mph - N/A   Overcast
1:15 AM 70.7 °F - 70.2 °F 98% 29.90 in 10.0 mi ESE 6.9 mph - N/A   Overcast
1:35 AM 71.1 °F - 70.7 °F 99% 29.90 in 10.0 mi ESE 6.9 mph - N/A   Overcast
1:55 AM 71.2 °F - 71.1 °F 99% 29.90 in 10.0 mi ESE 5.8 mph - N/A   Overcast
2:15 AM 71.6 °F - 71.6 °F 100% 29.89 in 10.0 mi SE 8.1 mph - N/A   Overcast
2:35 AM 72.0 °F - 72.0 °F 100% 29.88 in 10.0 mi SE 10.4 mph 16.1 mph N/A   Overcast
2:55 AM 72.0 °F - 72.0 °F 100% 29.87 in 10.0 mi SE 10.4 mph - N/A   Overcast
3:15 AM 72.1 °F - 72.1 °F 100% 29.87 in 10.0 mi SE 13.8 mph 19.6 mph N/A   Overcast
3:35 AM 72.1 °F - 72.1 °F 100% 29.86 in 10.0 mi SE 11.5 mph 16.1 mph N/A   Overcast
3:55 AM 71.8 °F - 71.8 °F 100% 29.86 in 10.0 mi SE 11.5 mph 16.1 mph N/A   Overcast
4:15 AM 72.1 °F - 72.1 °F 100% 29.87 in 10.0 mi SE 12.7 mph 18.4 mph N/A   Overcast
4:35 AM 72.3 °F - 72.3 °F 100% 29.88 in 10.0 mi SSE 9.2 mph 17.3 mph N/A   Overcast
4:55 AM 72.5 °F - 72.5 °F 100% 29.89 in 10.0 mi SSE 10.4 mph - N/A   Overcast
5:15 AM 72.5 °F - 72.5 °F 100% 29.90 in 10.0 mi SE 9.2 mph - N/A   Overcast
5:35 AM 72.5 °F - 72.5 °F 100% 29.90 in 10.0 mi SE 10.4 mph - N/A   Overcast
5:55 AM 72.3 °F - 72.3 °F 100% 29.90 in 10.0 mi SE 6.9 mph - N/A   Overcast
6:15 AM 72.1 °F - 72.1 °F 100% 29.90 in 10.0 mi SE 8.1 mph 17.3 mph N/A   Overcast
6:35 AM 72.3 °F - 72.3 °F 100% 29.91 in 10.0 mi SE 8.1 mph - N/A   Overcast
6:55 AM 72.5 °F - 72.5 °F 100% 29.91 in 10.0 mi SE 6.9 mph - N/A   Overcast
7:15 AM 72.9 °F - 72.9 °F 100% 29.91 in 10.0 mi SE 10.4 mph - N/A   Overcast
7:35 AM 73.4 °F - 73.4 °F 100% 29.92 in 10.0 mi SE 11.5 mph 17.3 mph N/A   Overcast
7:55 AM 73.8 °F - 73.8 °F 100% 29.92 in 10.0 mi SE 11.5 mph 17.3 mph N/A   Overcast
8:15 AM 74.3 °F - 74.3 °F 100% 29.92 in 10.0 mi SE 11.5 mph 17.3 mph N/A   Overcast
8:35 AM 74.8 °F - 74.5 °F 99% 29.92 in 10.0 mi SE 12.7 mph - N/A   Overcast
8:55 AM 75.2 °F - 75.0 °F 99% 29.92 in 7.0 mi SE 12.7 mph 17.3 mph N/A   Overcast
9:15 AM 76.1 °F - 75.2 °F 97% 29.92 in 10.0 mi SE 16.1 mph 23.0 mph N/A   Overcast
9:35 AM 76.1 °F - 75.2 °F 97% 29.93 in 10.0 mi SE 12.7 mph 21.9 mph N/A   Overcast
9:55 AM 77.2 °F - 75.2 °F 94% 29.93 in 10.0 mi SE 13.8 mph 23.0 mph N/A   Overcast
10:15 AM 78.3 °F - 75.4 °F 91% 29.94 in 10.0 mi SE 16.1 mph 24.2 mph N/A   Overcast
10:35 AM 78.3 °F - 75.2 °F 90% 29.94 in 10.0 mi SE 15.0 mph 28.8 mph N/A   Overcast
10:55 AM 77.4 °F - 75.0 °F 92% 29.95 in 10.0 mi SSE 16.1 mph 26.5 mph N/A   Overcast
11:15 AM 77.7 °F - 75.2 °F 92% 29.95 in 10.0 mi SE 19.6 mph 26.5 mph N/A   Overcast
11:35 AM 77.9 °F - 75.2 °F 91% 29.95 in 10.0 mi SE 20.7 mph 25.3 mph N/A   Overcast
11:55 AM 78.4 °F - 75.2 °F 90% 29.95 in 10.0 mi SE 15.0 mph 25.3 mph N/A   Overcast
12:15 PM 79.3 °F - 75.4 °F 88% 29.95 in 10.0 mi SE 15.0 mph 25.3 mph N/A   Overcast
12:35 PM 79.7 °F - 75.2 °F 86% 29.94 in 10.0 mi SSE 20.7 mph 29.9 mph N/A   Overcast
12:55 PM 80.2 °F 85.5 °F 75.2 °F 85% 29.93 in 10.0 mi SSE 23.0 mph 33.4 mph N/A   Overcast
1:15 PM 81.0 °F 86.9 °F 75.4 °F 83% 29.93 in 10.0 mi SE 17.3 mph 33.4 mph N/A   Overcast
1:35 PM 81.7 °F 88.3 °F 75.4 °F 81% 29.92 in 10.0 mi SSE 23.0 mph 31.1 mph N/A   Overcast
1:55 PM 81.3 °F 87.6 °F 75.4 °F 82% 29.92 in 10.0 mi SSE 19.6 mph 32.2 mph N/A   Overcast
2:15 PM 81.5 °F 88.0 °F 75.4 °F 82% 29.92 in 10.0 mi SSE 23.0 mph 32.2 mph N/A   Overcast
3:15 PM 81.1 °F 87.4 °F 75.6 °F 83% 29.91 in 10.0 mi SSE 19.6 mph 31.1 mph N/A   Overcast
3:35 PM 79.3 °F - 75.0 °F 87% 29.91 in 10.0 mi SSE 19.6 mph 29.9 mph N/A   Overcast
3:55 PM 78.3 °F - 74.8 °F 89% 29.90 in 10.0 mi SE 19.6 mph 26.5 mph N/A   Overcast
4:15 PM 78.8 °F - 75.2 °F 89% 29.89 in 10.0 mi SE 16.1 mph 25.3 mph N/A   Overcast
4:35 PM 78.1 °F - 75.2 °F 91% 29.90 in 10.0 mi SE 13.8 mph 27.6 mph N/A   Overcast
4:55 PM 78.8 °F - 75.2 °F 89% 29.91 in 10.0 mi SSE 13.8 mph 20.7 mph N/A   Overcast
5:15 PM 77.9 °F - 75.2 °F 91% 29.92 in 10.0 mi SSE 16.1 mph 20.7 mph N/A   Overcast
5:35 PM 77.5 °F - 75.2 °F 92% 29.92 in 10.0 mi SE 15.0 mph 21.9 mph N/A   Overcast
5:55 PM 77.5 °F - 75.2 °F 92% 29.92 in 10.0 mi SE 16.1 mph 25.3 mph N/A   Overcast
6:15 PM 77.0 °F - 75.2 °F 94% 29.90 in 10.0 mi SE 16.1 mph 23.0 mph N/A   Overcast
6:35 PM 77.0 °F - 75.2 °F 94% 29.90 in 10.0 mi SE 13.8 mph 26.5 mph N/A   Mostly Cloudy
6:55 PM 77.4 °F - 75.2 °F 93% 29.89 in 10.0 mi ESE 17.3 mph 24.2 mph N/A   Mostly Cloudy
7:15 PM 77.0 °F - 74.8 °F 93% 29.90 in 10.0 mi SE 17.3 mph 25.3 mph N/A   Overcast
7:35 PM 77.0 °F - 74.8 °F 93% 29.92 in 10.0 mi SE 16.1 mph 26.5 mph N/A   Overcast
7:55 PM 77.0 °F - 74.8 °F 93% 29.91 in 10.0 mi SE 16.1 mph 29.9 mph N/A   Overcast
8:15 PM 77.0 °F - 75.2 °F 94% 29.91 in 10.0 mi SE 15.0 mph 25.3 mph N/A   Overcast
8:35 PM 77.0 °F - 75.2 °F 94% 29.91 in 10.0 mi SE 17.3 mph 24.2 mph N/A   Overcast
8:55 PM 77.0 °F - 75.2 °F 94% 29.89 in 10.0 mi ESE 19.6 mph 29.9 mph N/A   Overcast
9:15 PM 76.6 °F - 75.4 °F 96% 29.92 in 10.0 mi SE 16.1 mph 27.6 mph N/A   Overcast
9:35 PM 77.0 °F - 75.6 °F 95% 29.93 in 10.0 mi SE 18.4 mph 25.3 mph N/A   Overcast
9:55 PM 76.6 °F - 75.4 °F 96% 29.93 in 10.0 mi SE 16.1 mph 26.5 mph N/A   Overcast
10:15 PM 76.3 °F - 75.4 °F 97% 29.94 in 10.0 mi SE 13.8 mph 24.2 mph N/A   Overcast
10:35 PM 76.1 °F - 75.4 °F 98% 29.94 in 10.0 mi SE 16.1 mph 21.9 mph N/A   Overcast
10:55 PM 75.9 °F - 75.2 °F 98% 29.94 in 10.0 mi SE 16.1 mph 25.3 mph N/A   Overcast
11:15 PM 75.6 °F - 74.8 °F 98% 29.93 in 10.0 mi SE 13.8 mph 31.1 mph N/A   Overcast
11:35 PM 75.4 °F - 74.7 °F 98% 29.93 in 10.0 mi SE 16.1 mph 24.2 mph N/A   Overcast
11:55 PM 75.2 °F - 74.7 °F 98% 29.93 in 10.0 mi SE 13.8 mph 24.2 mph N/A   Overcast